Regional Weather Roundup
Issued by NWS

Home | Current Version | Previous Version | Graphics & Text | Print | Product List | Glossary On
Versions: 1 2 3 4 5 6 7 8 9 10 11 12 13 14 15 16 17 18 19 20 21 22 23 24 25 26 27 28 29 30 31 32 33 34 35 36 37 38 39 40 41 42 43 44 45 46 47 48 49 50
401
ASUS43 KMKX 301511
RWRWI

WISCONSIN REGIONAL WEATHER ROUNDUP
NATIONAL WEATHER SERVICE MILWAUKEE/SULLIVAN WI
1000 AM CDT FRI SEP 30 2016

NOTE: "FAIR" INDICATES FEW OR NO CLOUDS BELOW 12,000 FEET WITH NO
SIGNIFICANT WEATHER AND/OR OBSTRUCTIONS TO VISIBILITY.

WIZ001-002-006>008-014>016-023>028-301600-
NORTHWEST WISCONSIN

CITY           SKY/WX    TMP DP  RH WIND       PRES   REMARKS
SUPERIOR ARPT  CLOUDY    55  51  85 E7        30.44F
ASHLAND        CLOUDY    55  52  89 NE13      30.44S
HAYWARD        PTSUNNY   54  49  83 N8        30.42S
SIREN          CLOUDY    52  49  87 NE7       30.41F
CUMBERLAND     MOSUNNY   52  50  93 N6        30.38F
RICE LAKE      MOSUNNY   55  50  85 N9        30.39F
CHETEK         NOT AVBL
LADYSMITH      SUNNY     54  51  90 N3        30.40S
EAU CLAIRE     SUNNY     58  51  78 NE7       30.35S
MENOMONIE      SUNNY     57  52  83 N5        30.36S
NEW RICHMOND   SUNNY     58  51  79 NE7       30.38S
OSCEOLA        PTSUNNY   52  52 100 NW6       30.41F
$$

WIZ003>005-009-010-017-018-301600-
NORTH CENTRAL WISCONSIN

CITY           SKY/WX    TMP DP  RH WIND       PRES   REMARKS
MANITOWISH WTR NOT AVBL
ARBOR VITAE    MOSUNNY   57  53  88 NE8       30.40F
WOODRUFF       MOSUNNY   57  53  88 NE8       30.40F
RHINELANDER    SUNNY     56  53  90 NE8       30.38F
EAGLE RIVER    MOSUNNY   55  55 100 NE8       30.39F
LAND O LAKES   CLOUDY    53  53 100 N8        30.43S
PHILLIPS       CLOUDY    50  50 100 NE8       30.39S
TOMAHAWK       SUNNY     56  53  89 NE7       30.37F
MEDFORD        SUNNY     58  55  88 N9        30.34F
MERRILL        PTSUNNY   60  53  77 NE9       30.35F
$$

WIZ029-030-035-036-043>047-301600-
CENTRAL WISCONSIN

CITY           SKY/WX    TMP DP  RH WIND       PRES   REMARKS
WAUSAU         CLOUDY    60  51  72 VRB5      30.32S
MOSINEE        MOSUNNY   61  54  77 NE9       30.33S
MARSHFIELD     SUNNY     61  50  67 NE14      30.31F
STEVENS POINT  SUNNY     60  53  77 NE10G17   30.32S
WAUPACA        CLOUDY    61  56  85 N8        30.30S
WAUTOMA        CLOUDY    59  55  87 NE9       30.29S
WISC RAPIDS    CLOUDY    61  54  77 NE7       30.32R
CAMP DOUGLAS   PTSUNNY   59  54  82 NE8       30.29S
$$

WIZ011>013-019>022-031-037>040-048>050-301600-
NORTHEAST WISCONSIN

CITY           SKY/WX    TMP DP  RH WIND       PRES   REMARKS
ANTIGO         MOSUNNY   59  52  79 NE15      30.35S
SHAWANO        CLOUDY    62  56  80 NE10      30.33R
OCONTO         NOT AVBL
STURGEON BAY   CLOUDY    63  57  81 NE16G22   30.30S
GREEN BAY      CLOUDY   N/A N/A N/A NE18G25   30.29R
MANITOWOC      LGT RAIN  61  57  87 NE7       30.28R
APPLETON       CLOUDY    59  57  94 N14       30.27S
CLINTONVILLE   CLOUDY    59  54  82 NE13G18   30.31S
OSHKOSH        CLOUDY    60  58  92 NE10      30.27R
$$

WIZ032>034-041-042-053>061-301600-
SOUTHWEST WISCONSIN

CITY           SKY/WX    TMP DP  RH WIND       PRES   REMARKS
LA CROSSE      CLOUDY    60  53  77 N7        30.31S
SPARTA         MOSUNNY   56  52  87 N5        30.30F
VIROQUA        CLOUDY    56  53  86 NE8       30.29S
BOSCOBEL       CLOUDY    61  54  77 N5        30.27F
PRAIRIE DU CHI CLOUDY    60  52  76 NW5       30.26F
PLATTEVILLE    CLOUDY    59  58  96 N12       30.24S
$$

WIZ056-057-062-063-064-067-068-301600-
SOUTH CENTRAL WISCONSIN

CITY           SKY/WX    TMP DP  RH WIND       PRES   REMARKS
REEDSBURG      NOT AVBL
BARABOO/DELLS  CLOUDY    58  54  86 NE9G16    30.27S
LONE ROCK      CLOUDY    61  55  81 NE12      30.26S
MINERAL POINT  CLOUDY    59  55  88 NE9       30.25S
MADISON        CLOUDY    59  56  89 N10       30.24R
MIDDLETON      CLOUDY    60  58  95 N5        30.25S
WATERTOWN      LGT RAIN  60  60 100 NE12G18   30.22F
MONROE         CLOUDY    59  55  88 NE15G21   30.21S
JANESVILLE     CLOUDY    63  59  88 NE9       30.20S
$$

WIZ051-052-058>065-066-070>072-301600-
SOUTHEAST WISCONSIN

CITY           SKY/WX    TMP DP  RH WIND       PRES   REMARKS
MILWAUKEE      RAIN      60  58  92 NE13      30.22R FOG
WAUKESHA       LGT RAIN  57  55  94 NE12G17   30.23S
MILWAUKEE/TIMM RAIN      59  55  88 NE9       30.23S FOG
RACINE         LGT RAIN  62  60  93 NE12      30.21S
BURLINGTON     CLOUDY    59  57  94 NE13      30.20S
KENOSHA        LGT RAIN  61  59  93 NE10      30.20R FOG
FOND DU LAC    LGT RAIN  60  58  92 NE9       30.26S FOG
SHEBOYGAN      LGT RAIN  60  57  89 NE14      30.26R FOG
WEST BEND      RAIN      64  64 100 NE10      30.24S
JUNEAU         RAIN      59  56  91 N8        30.25F
$$

LSZ147-162-301600-
LAKE SUPERIOR

STATION/POSITION TIME  TEMP    WIND        PRES    WAVE
                       AIR SEA DIR/SP/G            HT/PER
                 (UTC) (F)     (DEG/KT/KT) (MB)    (FT/S)
W MID LAKE BUOY  1450   55 55   70/ 12/ 14 1030.8F   1/ 5
DEVILS ISLAND    1400   53      90/  7/  7 1031.7F
SAXON HARBOR     1400   55        CALM     1030.5F
$$

LMZ867-665-643>646-301600-
LAKE MICHIGAN

STATION/POSITION TIME  TEMP    WIND        PRES    WAVE
                       AIR SEA DIR/SP/G            HT/PER
                 (UTC) (F)     (DEG/KT/KT) (MB)    (FT/S)
CHAMBERS ISLAND  1400   60      10/ 21/ 24 1026.1F
S GREEN BAY BUOY 1400   60 62   50/ 19/ 23 1025.0F
N MID LAKE BUOY  1450   62 65   70/ 21/ 23 1025.8R   4/ 5
NORTHPORT PIER   1400   61      10/ 11/ 14 1026.4F
SISTER BAY       1408   63     110/  8/ 15   N/A
KEWAUNEE LAKESHO 1400   62      50/ 11/ 17 1024.7R
SHEBOYGAN LAKESH 1500   60      30/ 14/ 15 1024.1R
PORT WASHINGTON  1440   59      50/ 11/ 17 1024.4S
ATWATER BUOY     1400   57 53   40/ 14/ 16 1022.7F
MILWAUKEE LAKESH 1410   58      20/ 14/ 15   N/A
S MID LAKE BUOY  1450   62 67   70/ 21/ 25 1021.2R   6/ 6
KENOSHA   LAKESH 1500   61      40/ 17/ 21 1021.7S
$$

TC  - TEMPERATURE IN CELSIUS
VSB - VISIBILITY IN STATUTE MILES
WCI - WIND CHILL INDEX
HX  - HEAT INDEX





USA.gov is the U.S. government's official web portal to all federal, state and local government web resources and services.